{"data":{"norad_id":64813,"epoch":"2026-09-20T13:49:51.651264Z","epoch_age_seconds":117485,"freshness":"FRESH","line1":"1 64813U 25150Z   26263.57629226  .00004250  00000+0  36368-3 0  9992","line2":"2 64813  70.0028   3.2814 0003289 265.7486  94.3297 14.98337303 65702","mean_motion":14.98337303,"eccentricity":0.0003289,"inclination_deg":70.0028,"raan_deg":3.2814,"arg_perigee_deg":265.7486,"mean_anomaly_deg":94.3297,"bstar":0.00036368,"rev_number":6570,"period_min":96.10653069351,"perigee_km":569.74739609706,"apogee_km":574.31921812508,"semimajor_km":6950.1703071111,"source":"CELESTRAK","updated_at":"2026-09-21T09:00:35.447413Z"}}